KG2V Weather Reports


time (UTC)temp
C
wind
direction
speed
KPH
gust
KPH
rain 1hr
cm
rain 24hr
cm
rain mn
cm
humidity
%
barometer
mb
20260906210732 20 114 1.6 1.6 0.00 0.00 0.00 71 1015.5
20260906210227 20 109 0.0 0.0 0.00 0.00 0.00 72 1015.8
20260906205722 20 14 6.4 6.4 0.00 0.00 0.00 72 1015.8
20260906205219 20 93 1.6 1.6 0.00 0.00 0.00 71 1015.6
20260906204718 20 106 0.0 1.6 0.00 0.00 0.00 70 1015.4
20260906204218 20 103 0.0 0.0 0.00 0.00 0.00 68 1015.5
20260906203718 20 101 0.0 0.0 0.00 0.00 0.00 69 1015.6
20260906203213 20 78 3.2 4.8 0.00 0.00 0.00 71 1015.6
20260906202710 20 79 3.2 3.2 0.00 0.00 0.00 69 1015.4
20260906202209 20 323 1.6 3.2 0.00 0.00 0.00 69 1015.4
20260906201704 20 9 6.4 6.4 0.00 0.00 0.00 70 1015.4
20260906201203 20 42 3.2 4.8 0.00 0.00 0.00 70 1015.3
20260906200659 21 85 1.6 1.6 0.00 0.00 0.00 67 1015.5
20260906200155 21 114 0.0 1.6 0.00 0.00 0.00 69 1015.6
20260906195650 20 130 0.0 0.0 0.00 0.00 0.00 70 1015.5
20260906195147 21 87 1.6 1.6 0.00 0.00 0.00 67 1015.8
20260906194643 21 91 1.6 3.2 0.00 0.00 0.00 70 1015.7
20260906194137 20 117 0.0 1.6 0.00 0.00 0.00 71 1015.5
20260906193633 20 51 0.0 0.0 0.00 0.00 0.00 73 1015.6
20260906193128 21 126 1.6 3.2 0.00 0.00 0.00 71 1015.6
20260906192624 21 108 1.6 1.6 0.00 0.00 0.00 70 1015.6
20260906192122 20 71 1.6 3.2 0.00 0.00 0.00 72 1015.5
20260906191618 21 321 6.4 6.4 0.00 0.00 0.00 70 1015.6
20260906191117 21 92 0.0 0.0 0.00 0.00 0.00 69 1015.5
20260906190616 20 99 0.0 0.0 0.00 0.00 0.00 69 1015.3
20260906190112 21 95 1.6 3.2 0.00 0.00 0.00 71 1015.6
20260906185610 21 90 1.6 3.2 0.00 0.00 0.00 73 1015.4
20260906185109 21 24 9.7 12.9 0.00 0.00 0.00 69 1015.6
20260906184604 20 99 3.2 4.8 0.00 0.00 0.00 73 1015.5
20260906184059 20 29 6.4 9.7 0.00 0.00 0.00 72 1015.6
20260906183555 20 29 3.2 3.2 0.00 0.00 0.00 71 1015.5
20260906183052 21 63 1.6 3.2 0.00 0.00 0.00 70 1015.6
20260906182552 22 63 0.0 0.0 0.00 0.00 0.00 70 1015.5
20260906182048 21 13 1.6 6.4 0.00 0.00 0.00 70 1015.5
20260906181543 21 91 4.8 4.8 0.00 0.00 0.00 68 1015.5
20260906181039 20 111 0.0 0.0 0.00 0.00 0.00 73 1015.5
20260906180534 20 103 0.0 1.6 0.00 0.00 0.00 72 1015.2
20260906180033 21 85 1.6 3.2 0.00 0.00 0.00 71 1015.4
20260906175526 21 119 0.0 0.0 0.00 0.00 0.00 70 1015.5
20260906175026 21 74 3.2 3.2 0.00 0.00 0.00 70 1015.7
20260906174524 21 71 1.6 3.2 0.00 0.00 0.00 69 1015.4
20260906174019 21 135 0.0 0.0 0.00 0.00 0.00 69 1015.4
20260906173514 20 23 6.4 9.7 0.00 0.00 0.00 72 1015.6
20260906173010 21 128 1.6 3.2 0.00 0.00 0.00 73 1015.4
20260906172505 20 144 1.6 3.2 0.00 0.00 0.00 74 1015.6
20260906172001 21 8 3.2 9.7 0.00 0.00 0.00 73 1015.5
20260906171455 21 115 0.0 1.6 0.00 0.00 0.00 73 1015.6
20260906170950 21 132 0.0 1.6 0.00 0.00 0.00 71 1015.8
20260906170446 21 53 0.0 0.0 0.00 0.00 0.00 75 1015.6
20260906165943 20 22 4.8 4.8 0.00 0.00 0.00 77 1015.7
20260906165443 20 67 4.8 6.4 0.00 0.00 0.00 78 1015.6
20260906164938 20 101 0.0 1.6 0.00 0.00 0.00 79 1015.7
20260906164436 20 97 1.6 1.6 0.00 0.00 0.00 76 1015.5
20260906163933 20 92 1.6 1.6 0.00 0.00 0.00 78 1015.5
20260906163429 20 50 1.6 3.2 0.00 0.00 0.00 76 1015.7
20260906162926 21 94 0.0 0.0 0.00 0.00 0.00 72 1015.6
20260906162425 20 98 0.0 1.6 0.00 0.00 0.00 74 1015.4
20260906161920 20 113 1.6 3.2 0.00 0.00 0.00 73 1015.6
20260906161420 20 147 0.0 0.0 0.00 0.00 0.00 74 1015.5
20260906160918 20 62 4.8 6.4 0.00 0.00 0.00 77 1015.8
20260906160407 19 97 0.0 0.0 0.00 0.00 0.00 80 1015.4
20260906155905 20 58 1.6 3.2 0.00 0.00 0.00 80 1015.7
20260906155359 20 49 3.2 3.2 0.00 0.00 0.00 77 1015.7
20260906154856 19 120 1.6 1.6 0.00 0.00 0.00 80 1015.5
20260906154355 19 22 3.2 3.2 0.00 0.00 0.00 83 1015.4
20260906153854 18 122 0.0 0.0 0.00 0.00 0.00 84 1015.3
20260906153353 19 80 0.0 1.6 0.00 0.00 0.00 82 1015.3
20260906152848 19 114 0.0 0.0 0.00 0.00 0.00 82 1015.4
20260906152343 19 47 6.4 11.3 0.00 0.00 0.00 81 1015.2
20260906151842 19 87 3.2 3.2 0.00 0.00 0.00 80 1015.3
20260906151338 20 97 0.0 1.6 0.00 0.00 0.00 80 1015.4
20260906150833 20 32 3.2 3.2 0.00 0.00 0.00 81 1015.2
20260906150329 20 94 1.6 1.6 0.00 0.00 0.00 80 1015.4
20260906145828 19 19 0.0 3.2 0.00 0.00 0.00 79 1015.3
20260906145326 19 19 4.8 4.8 0.00 0.00 0.00 82 1015.2
20260906144822 20 31 4.8 6.4 0.00 0.00 0.00 82 1015.1
20260906144317 19 113 0.0 0.0 0.00 0.00 0.00 83 1015.1
20260906143816 19 12 3.2 4.8 0.00 0.00 0.00 84 1015.2
20260906143313 19 76 1.6 1.6 0.00 0.00 0.00 82 1015.2
20260906142808 19 95 0.0 1.6 0.00 0.00 0.00 85 1015.2
20260906142306 19 111 0.0 0.0 0.00 0.00 0.00 83 1015.3
20260906141802 19 0 3.2 3.2 0.00 0.00 0.00 87 1015.1
20260906141257 18 70 0.0 0.0 0.00 0.00 0.00 87 1015.1
20260906140755 18 84 0.0 1.6 0.00 0.00 0.00 88 1015.1
20260906140251 18 120 0.0 0.0 0.00 0.00 0.00 88 1015.0
20260906135748 18 103 0.0 1.6 0.00 0.00 0.00 88 1014.9
20260906135244 18 74 1.6 1.6 0.00 0.00 0.00 88 1014.9
20260906134739 18 91 0.0 1.6 0.00 0.00 0.00 89 1014.7
20260906134234 18 92 0.0 0.0 0.00 0.00 0.00 90 1014.8
20260906133730 18 129 1.6 1.6 0.00 0.00 0.00 91 1014.7
20260906133225 18 61 1.6 3.2 0.00 0.00 0.00 91 1014.5
20260906132720 18 96 0.0 0.0 0.00 0.00 0.00 93 1014.7
20260906132216 18 103 0.0 1.6 0.00 0.00 0.00 94 1014.6
20260906131711 17 25 3.2 3.2 0.00 0.00 0.00 95 1014.8
20260906131206 17 88 0.0 0.0 0.00 0.00 0.00 96 1014.8
20260906130702 17 101 0.0 0.0 0.00 0.00 0.00 97 1014.6
20260906130157 17 68 0.0 0.0 0.00 0.00 0.00 98 1014.5
20260906125655 17 120 0.0 0.0 0.00 0.00 0.00 98 1014.3
20260906125153 17 112 0.0 0.0 0.00 0.00 0.00 99 1014.6
20260906124649 17 111 0.0 0.0 0.00 0.00 0.00 99 1014.4
20260906124144 17 74 0.0 1.6 0.00 0.00 0.00 99 1014.2
20260906123643 17 91 1.6 3.2 0.00 0.00 0.00 99 1014.2
20260906123139 17 98 0.0 0.0 0.00 0.00 0.00 99 1014.2
20260906122637 17 44 1.6 3.2 0.00 0.00 0.00 99 1014.6
20260906122133 17 30 0.0 1.6 0.00 0.00 0.00 99 1014.4
20260906121629 17 97 0.0 0.0 0.00 0.00 0.00 99 1014.3
20260906121126 16 92 0.0 1.6 0.00 0.00 0.00 99 1014.4
20260906120621 16 85 0.0 0.0 0.00 0.00 0.00 99 1014.3
20260906120118 16 70 0.0 0.0 0.00 0.00 0.00 99 1014.3
20260906115612 16 108 0.0 0.0 0.00 0.00 0.00 99 1013.9
20260906115108 15 108 0.0 0.0 0.00 0.00 0.00 99 1014.0
20260906114601 15 108 0.0 0.0 0.00 0.00 0.00 99 1014.0
20260906114057 15 108 0.0 0.0 0.00 0.00 0.00 99 1013.9
20260906113556 14 108 0.0 0.0 0.00 0.00 0.00 99 1013.8
20260906113052 14 108 0.0 0.0 0.00 0.00 0.00 99 1013.8
20260906112551 14 108 0.0 0.0 0.00 0.00 0.00 99 1013.8
20260906112048 14 108 0.0 0.0 0.00 0.00 0.00 99 1013.6
20260906111548 13 108 0.0 0.0 0.00 0.00 0.00 99 1013.7
20260906111043 13 108 0.0 0.0 0.00 0.00 0.00 99 1013.7
20260906110543 13 108 0.0 0.0 0.00 0.00 0.00 99 1013.6
20260906110042 13 108 0.0 0.0 0.00 0.00 0.00 99 1013.6
20260906105537 13 108 0.0 0.0 0.00 0.00 0.00 99 1013.4
20260906105033 13 108 0.0 0.0 0.00 0.00 0.00 99 1013.4
20260906104531 13 108 0.0 0.0 0.00 0.00 0.00 99 1013.3
20260906104026 13 108 0.0 0.0 0.00 0.00 0.00 99 1013.4
20260906103524 13 108 0.0 0.0 0.00 0.00 0.00 99 1013.1
20260906103020 13 108 0.0 0.0 0.00 0.00 0.00 99 1013.2
20260906102515 13 108 0.0 0.0 0.00 0.00 0.00 99 1013.2
20260906102014 13 108 0.0 0.0 0.00 0.00 0.00 99 1013.0
20260906101509 13 108 0.0 0.0 0.00 0.00 0.00 99 1013.1
20260906101005 13 108 0.0 0.0 0.00 0.00 0.00 99 1013.0
20260906100501 13 108 0.0 0.0 0.00 0.00 0.00 99 1013.0
20260906095959 13 108 0.0 0.0 0.00 0.00 0.00 99 1012.9
20260906095455 13 108 0.0 0.0 0.00 0.00 0.00 99 1013.0
20260906094950 13 108 0.0 0.0 0.00 0.00 0.00 99 1012.7
20260906094444 13 108 0.0 0.0 0.00 0.00 0.00 99 1012.7
20260906093940 13 108 0.0 0.0 0.00 0.00 0.00 99 1012.8
20260906093436 13 108 0.0 0.0 0.00 0.00 0.00 99 1012.7
20260906092936 13 108 0.0 0.0 0.00 0.00 0.00 99 1012.6
20260906092435 14 108 0.0 0.0 0.00 0.00 0.00 99 1012.6
20260906091931 13 108 0.0 0.0 0.00 0.00 0.00 99 1012.5
20260906091426 14 108 0.0 0.0 0.00 0.00 0.00 99 1012.4
20260906090923 14 108 0.0 0.0 0.00 0.00 0.00 99 1012.5
20260906090418 14 108 0.0 0.0 0.00 0.00 0.00 99 1012.3
20260906085913 14 108 0.0 0.0 0.00 0.00 0.00 99 1012.3
20260906085412 14 108 0.0 0.0 0.00 0.00 0.00 99 1012.2
20260906084911 14 108 0.0 0.0 0.00 0.00 0.00 99 1012.1
20260906084406 14 108 0.0 0.0 0.00 0.00 0.00 99 1012.1
20260906083905 14 108 0.0 0.0 0.00 0.00 0.00 99 1011.8
20260906083401 14 108 0.0 0.0 0.00 0.00 0.00 99 1011.9
20260906082901 14 108 0.0 0.0 0.00 0.00 0.00 99 1011.9
20260906082401 15 108 0.0 0.0 0.00 0.00 0.00 99 1011.9
20260906081857 15 108 0.0 0.0 0.00 0.00 0.00 99 1011.9
20260906081352 15 108 0.0 0.0 0.00 0.00 0.00 99 1011.8
20260906080848 15 108 0.0 0.0 0.00 0.00 0.00 99 1012.0
20260906080345 15 108 0.0 0.0 0.00 0.00 0.00 99 1012.0
20260906075844 15 108 0.0 0.0 0.00 0.00 0.00 99 1011.9
20260906075339 15 108 0.0 0.0 0.00 0.00 0.00 99 1012.0
20260906074834 15 108 0.0 0.0 0.00 0.00 0.00 99 1011.9
20260906074334 15 108 0.0 0.0 0.00 0.00 0.00 99 1011.8
20260906073833 15 108 0.0 0.0 0.00 0.00 0.00 99 1011.9
20260906073328 15 108 0.0 0.0 0.00 0.00 0.00 99 1011.8
20260906072824 15 108 0.0 0.0 0.00 0.00 0.00 99 1011.7
20260906072320 15 108 0.0 0.0 0.00 0.00 0.00 99 1011.6
20260906071815 15 108 0.0 0.0 0.00 0.00 0.00 99 1011.6
20260906071310 15 108 0.0 0.0 0.00 0.00 0.00 99 1011.6
20260906070806 15 108 0.0 0.0 0.00 0.00 0.00 99 1011.6
20260906070302 15 108 0.0 0.0 0.00 0.00 0.00 99 1011.7
20260906065756 15 108 0.0 0.0 0.00 0.00 0.00 99 1011.6
20260906065252 15 108 0.0 0.0 0.00 0.00 0.00 99 1012.0
20260906064747 15 108 0.0 0.0 0.00 0.00 0.00 99 1011.8
20260906064243 15 108 0.0 0.0 0.00 0.00 0.00 99 1011.7
20260906063738 15 108 0.0 0.0 0.00 0.00 0.00 99 1011.9
20260906063233 15 108 0.0 0.0 0.00 0.00 0.00 99 1011.7
20260906062728 15 108 0.0 0.0 0.00 0.00 0.00 99 1011.7
20260906062227 15 108 0.0 0.0 0.00 0.00 0.00 99 1011.8
20260906061724 16 108 0.0 0.0 0.00 0.00 0.00 99 1011.9
20260906061220 16 108 0.0 0.0 0.00 0.00 0.00 99 1011.9
20260906060715 16 108 0.0 0.0 0.00 0.00 0.00 99 1011.8
20260906060212 16 108 0.0 0.0 0.00 0.00 0.00 99 1011.7
20260906055707 16 108 0.0 0.0 0.00 0.00 0.00 99 1011.9
20260906055202 16 108 0.0 0.0 0.00 0.00 0.00 99 1011.7
20260906054657 16 108 0.0 0.0 0.00 0.00 0.00 99 1011.9
20260906054152 16 108 0.0 0.0 0.00 0.00 0.00 99 1011.8
20260906053649 16 108 0.0 0.0 0.00 0.00 0.00 99 1011.9
20260906053144 16 108 0.0 0.0 0.00 0.00 0.00 99 1011.9
20260906052639 16 108 0.0 0.0 0.00 0.00 0.00 99 1011.8
20260906052136 16 108 0.0 0.0 0.00 0.00 0.00 99 1011.9
20260906051632 16 108 0.0 0.0 0.00 0.00 0.00 99 1011.8
20260906051132 16 108 0.0 0.0 0.00 0.00 0.00 99 1011.8
20260906050627 16 108 0.0 0.0 0.00 0.00 0.00 99 1011.7
20260906050122 16 108 0.0 0.0 0.00 0.00 0.00 99 1011.9
20260906045621 16 108 0.0 0.0 0.00 0.00 0.00 99 1011.9
20260906045116 16 108 0.0 0.0 0.00 0.00 0.00 99 1012.0
20260906044612 16 108 0.0 0.0 0.00 0.00 0.00 99 1011.9
20260906044107 15 108 0.0 0.0 0.00 0.00 0.00 99 1011.8
20260906043604 15 108 0.0 0.0 0.00 0.00 0.00 99 1011.9
20260906043059 15 108 0.0 0.0 0.00 0.00 0.00 99 1011.7
20260906042557 15 108 0.0 0.0 0.00 0.00 0.00 99 1011.6
20260906042052 15 108 0.0 0.0 0.00 0.00 0.00 99 1011.8
20260906041548 15 108 0.0 0.0 0.00 0.00 0.00 99 1011.6
20260906041043 15 108 0.0 0.0 0.00 0.00 0.00 99 1011.6
20260906040538 15 108 0.0 0.0 0.00 0.00 0.00 99 1011.8
20260906040033 15 108 0.0 0.0 0.00 0.00 0.00 99 1011.5
20260906035528 15 108 0.0 0.0 0.00 0.00 0.00 99 1011.9
20260906035025 15 108 0.0 0.0 0.00 0.00 0.00 99 1011.6
20260906034524 15 108 0.0 0.0 0.00 0.00 0.00 98 1011.8
20260906034019 15 108 0.0 0.0 0.00 0.00 0.00 98 1011.6
20260906033514 15 108 0.0 0.0 0.00 0.00 0.00 98 1011.5
20260906033010 15 108 0.0 0.0 0.00 0.00 0.00 98 1011.5
20260906032506 15 108 0.0 0.0 0.00 0.00 0.00 98 1011.4
20260906032001 15 108 0.0 0.0 0.00 0.00 0.00 98 1011.4
20260906031456 15 108 0.0 0.0 0.00 0.00 0.00 98 1011.8
20260906030951 15 108 0.0 0.0 0.00 0.00 0.00 97 1011.7
20260906030445 15 108 0.0 0.0 0.00 0.00 0.00 97 1011.4
20260906025940 16 108 0.0 0.0 0.00 0.00 0.00 97 1011.5
20260906025434 16 108 0.0 0.0 0.00 0.00 0.00 97 1011.4
20260906024933 16 108 0.0 0.0 0.00 0.00 0.00 97 1011.4
20260906024432 16 108 0.0 0.0 0.00 0.00 0.00 96 1011.3
20260906023927 16 108 0.0 0.0 0.00 0.00 0.00 96 1011.4
20260906023424 16 108 0.0 0.0 0.00 0.00 0.00 96 1011.5
20260906022924 16 108 0.0 0.0 0.00 0.00 0.00 96 1011.4
20260906022419 16 108 0.0 0.0 0.00 0.00 0.00 96 1011.2
20260906021914 16 108 0.0 0.0 0.00 0.00 0.00 95 1011.3
20260906021414 17 108 0.0 0.0 0.00 0.00 0.00 95 1011.2
20260906020909 17 108 0.0 0.0 0.00 0.00 0.00 95 1011.4
20260906020409 17 108 0.0 0.0 0.00 0.00 0.00 94 1011.2
20260906015903 17 108 0.0 0.0 0.00 0.00 0.00 94 1011.2
20260906015402 17 108 0.0 0.0 0.00 0.00 0.00 93 1011.2
20260906014856 17 108 0.0 0.0 0.00 0.00 0.00 93 1011.3
20260906014351 17 108 0.0 0.0 0.00 0.00 0.00 92 1011.2
20260906013847 18 108 0.0 0.0 0.00 0.00 0.00 92 1011.1
20260906013343 18 108 0.0 0.0 0.00 0.00 0.00 92 1011.2
20260906012838 18 108 0.0 0.0 0.00 0.00 0.00 92 1011.1
20260906012333 18 108 0.0 0.0 0.00 0.00 0.00 91 1011.3
20260906011832 18 108 0.0 0.0 0.00 0.00 0.00 91 1011.0
20260906011327 18 108 0.0 0.0 0.00 0.00 0.00 91 1011.1
20260906010823 18 108 0.0 0.0 0.00 0.00 0.00 90 1011.1
20260906010319 18 108 0.0 0.0 0.00 0.00 0.00 91 1011.1
20260906005814 18 108 0.0 0.0 0.00 0.00 0.00 90 1011.3
20260906005313 18 108 0.0 0.0 0.00 0.00 0.00 90 1011.0
20260906004812 18 108 0.0 0.0 0.00 0.00 0.00 90 1011.1
20260906004312 18 108 0.0 0.0 0.00 0.00 0.00 90 1011.1
20260906003807 18 108 0.0 0.0 0.00 0.00 0.00 90 1010.9
20260906003303 18 108 0.0 0.0 0.00 0.00 0.00 90 1011.0
20260906002758 18 108 0.0 0.0 0.00 0.00 0.00 90 1010.9
20260906002257 18 108 0.0 0.0 0.00 0.00 0.00 90 1011.1
20260906001753 18 108 0.0 0.0 0.00 0.00 0.00 90 1011.0
20260906001249 18 108 0.0 0.0 0.00 0.00 0.00 90 1010.8
20260906000743 18 108 0.0 0.0 0.00 0.00 0.00 89 1010.8
20260906000238 18 108 0.0 0.0 0.00 0.00 0.00 89 1011.1
20260905235733 18 108 0.0 0.0 0.00 0.00 0.00 88 1011.0
20260905235232 18 108 0.0 0.0 0.00 0.00 0.00 87 1011.1
20260905234728 18 108 0.0 0.0 0.00 0.00 0.00 86 1010.7
20260905234223 18 108 0.0 0.0 0.00 0.00 0.00 86 1011.0
20260905233719 19 108 0.0 0.0 0.00 0.00 0.00 85 1011.0
20260905233218 19 108 0.0 0.0 0.00 0.00 0.00 83 1011.0
20260905232713 20 108 0.0 0.0 0.00 0.00 0.00 83 1010.9
20260905232208 20 107 0.0 0.0 0.00 0.00 0.00 81 1010.9
20260905231704 20 75 1.6 1.6 0.00 0.00 0.00 81 1011.0
20260905231200 20 117 0.0 0.0 0.00 0.00 0.00 80 1011.1
20260905230655 20 136 0.0 0.0 0.00 0.00 0.00 80 1011.0
20260905230153 21 104 0.0 0.0 0.00 0.00 0.00 79 1011.0
20260905225653 21 68 1.6 1.6 0.00 0.00 0.00 78 1011.2
20260905225148 21 110 0.0 0.0 0.00 0.00 0.00 77 1011.0
20260905224648 21 111 0.0 0.0 0.00 0.00 0.00 76 1010.8
20260905224148 21 96 0.0 0.0 0.00 0.00 0.00 76 1010.8
20260905223645 21 74 1.6 3.2 0.00 0.00 0.00 75 1011.0
20260905223141 21 108 0.0 1.6 0.00 0.00 0.00 74 1011.0
20260905222636 21 87 0.0 1.6 0.00 0.00 0.00 75 1010.7
20260905222126 21 20 3.2 4.8 0.00 0.00 0.00 73 1010.7
20260905221621 21 37 1.6 3.2 0.00 0.00 0.00 74 1010.9
20260905221118 21 113 0.0 0.0 0.00 0.00 0.00 74 1010.7
20260905220614 21 90 1.6 1.6 0.00 0.00 0.00 73 1010.6
20260905220110 21 153 0.0 0.0 0.00 0.00 0.00 72 1010.6
20260905215608 21 68 1.6 3.2 0.00 0.00 0.00 74 1010.7
20260905215059 21 30 1.6 1.6 0.00 0.00 0.00 73 1010.8
20260905214555 21 83 0.0 0.0 0.00 0.00 0.00 75 1010.8
20260905214055 22 64 3.2 3.2 0.00 0.00 0.00 73 1010.7
20260905213550 22 74 0.0 0.0 0.00 0.00 0.00 73 1010.5
20260905213046 22 69 0.0 0.0 0.00 0.00 0.00 72 1010.6
20260905212545 22 16 3.2 4.8 0.00 0.00 0.00 70 1010.3
20260905212044 22 50 1.6 3.2 0.00 0.00 0.00 70 1010.3
20260905211540 22 24 6.4 6.4 0.00 0.00 0.00 69 1010.4